Regional Weather Roundup
Issued by NWS Charleston, SC

Current Version | Previous Version | Graphics & Text | Print | Product List | Glossary On
Versions: 1 2 3 4 5 6 7 8 9 10 11 12 13 14 15 16 17 18 19 20 21 22 23 24 25 26 27 28 29 30 31 32 33 34 35 36 37 38 39 40 41 42 43 44 45 46 47 48 49 50
000
ASUS42 KCHS 290125
RWRCHS

REGIONAL WEATHER ROUNDUP
NATIONAL WEATHER SERVICE CHARLESTON SC
900 PM EDT THU AUG 28 2014

NOTE: "FAIR" INDICATES FEW OR NO CLOUDS BELOW 12,000 FEET WITH NO
SIGNIFICANT WEATHER AND/OR OBSTRUCTIONS TO VISIBILITY.

NOT ALL STATIONS ARE QUALITY CONTROLLED BY THE NATIONAL
WEATHER SERVICE. USE DATA WITH CAUTION...ESPECIALLY
DEWPOINT OBSERVATIONS.

SCZ027-030-031-034>040-042>050-290200-
...SOUTH CAROLINA...

CITY           SKY/WX    TMP DP  RH WIND       PRES   REMARKS
N CHARLESTON   CLEAR     77  66  68 S5        30.01R
WATERFRONT PRK   N/A     81 N/A N/A SW5         N/A
FORT JOHNSON   NOT AVBL
MOUNT PLEASANT FAIR      73  70  88 CALM      30.02R
JOHNS ISLAND   CLEAR     75  70  83 CALM      30.02R
PINOPOLIS        N/A     82  66  57 S5        29.93R
MONCKS CORNER    N/A     75  70  83 CALM      30.01R
SUMMERVILLE    NOT AVBL
BEAUFORT MCAS  CLEAR     79  69  71 SW3       30.00R
BEAUFORT ARPT  FAIR      73  70  88 S3        30.01R
HILTON HEAD IS CLEAR     73  72  94 CALM      30.02R
GEORGETOWN     NOT AVBL
WALTERBORO     CLEAR     77  61  57 CALM      30.02R
ORANGEBURG     CLEAR     76  63  64 CALM      30.00R
BARNWELL       FAIR      81  61  50 S6        30.00R
AIKEN          FAIR      79  59  50 SE5       30.03R
MANNING        FAIR      73  68  83 S3        30.01R
KINGSTREE      NOT AVBL
COLUMBIA       PTCLDY    82  62  50 S6        29.98R
SUMTER         CLEAR     82  60  47 S5        29.98R
FLORENCE       CLEAR     81  65  58 S6        29.99R
MYRTLE BEACH   CLEAR     81  66  61 SW12      30.00R
N MYRTLE BEACH CLEAR     81  67  62 SW10      30.00R

$$

GAZ063-065-086>088-099>101-113>116-118-119-134-136>141-150-290200-
...GEORGIA...

CITY           SKY/WX    TMP DP  RH WIND       PRES   REMARKS
SAVANNAH ARPT  PTCLDY    78  68  71 S5        30.01R
HUNTER AAF     CLEAR     78  70  76 S2        29.99R
FORT STEWART   CLEAR     78  67  70 SE2       29.99R
STATESBORO     NOT AVBL
SYLVANIA       CLEAR     77  67  71 CALM      30.02R
CLAXTON        NOT AVBL
THOMSON        CLEAR     76  67  76 CALM      30.04R
AUGUSTA-BUSH   CLEAR     74  61  63 CALM      29.97R
AUGUSTA-DANIEL CLEAR     87  54  32 CALM      29.99R
SWAINSBORO     FAIR      84  63  48 SE3       30.01R
VIDALIA          N/A     81  63  54 SE5       30.00R
ALMA           CLEAR     77  63  61 E7        29.99R
WAYCROSS       CLEAR     84  71  66 SE8       30.00R
JESUP            N/A     81  72  74 S3        30.02R
BRUNSWICK      CLEAR     73  70  88 CALM      30.02R
SAINT SIMONS   CLEAR     80  69  69 E7        30.00R

$$

SCZ027-028-034-036>038-045-046-048>050-GAZ119-141-290200-
...LAKE AND SUPPLEMENTAL COASTAL OBSERVATIONS...

STATION/POSITION TIME  TEMP    WIND        PRES    WAVE   SWELL
                       AIR SEA DIR/SP/G            HT/PER HT/PER/DIR
                 (UTC) (F)     (DEG/KT/KT) (MB)    (FT/S) (FT/S/D)
UPR LAKE MARION  NOT AVBL
WINYAH BAY       0100   79     240/  2     1016.0S
LAKE MURRAY      0100   87     120/  2/  6 1014.6S
ACE BASIN NERRS  0100   74        CALM     1016.0S
FORT PULASKI     0100   79     130/  3/  5 1016.4R
SAPELO ISLAND    0100   77     120/  3     1016.0S

$$

ANZ835-935-AMZ111-154-330-350-352-354-374-450-454-472-290200-
...C-MAN AND BUOY OBSERVATIONS...

STATION/POSITION TIME  TEMP    WIND        PRES    WAVE   SWELL
                       AIR SEA DIR/SP/G            HT/PER HT/PER/DIR
                 (UTC) (F)     (DEG/KT/KT) (MB)    (FT/S) (FT/S/D)
FOLLY BEACH CMAN 0100   81     190/ 11/ 12 1016.8R
BUOY 41004       0100   81 84  190/  6/  6 1016.2R   4/ 9   3/ 9
BUOY 41008       0100   82 85  110/  8/ 12 1015.9R   3/ 9   3/ 80/ 9
5E ST. MARYS GA  0100      84                N/A     3/ 9
FRYING PAN BUOY  NOT AVBL
BUOY 41025       0100   81     230/  8/ 10 1015.6R   5/ 9   5/130/ 9
CAPE LOOKOUT NC  0100   80     220/  7/  9 1015.8R
BUOY 41002       0039   81 82  210/  6/  8 1018.0    5/ 8   5/ 50/ 8
BUOY 41010       0100   83 84  110/  6/  8 1016.7R   6/ 9   5/ 40/ 9
BUOY 41012       NOT AVBL
ST AUGUSTINE FL  0100   81     120/  9/ 11 1016.9R
CAPERS NEARSHORE 0000   81     210/  8/ 10   N/A
FRIPP NEARSHORE  NOT AVBL


$$



USA.gov is the U.S. government's official web portal to all federal, state and local government web resources and services.